sat.trackr.live / text

‹ back to catalog

ONEWEB-0050

NORAD 45453 · 2020-020AF

PAYLOAD ACTIVE UNKNOWN

§ Identity

Operator
Country
UK
Launch date
2020-03-21
Launch site
TYMSC
Launch vehicle
Mass (kg)
RCS (m²)

Purposes: comms

External: N2YO · Heavens-Above · Gunter

§ Orbital elements

Epoch: 2026-09-09T22:28:33.521376Z

Period
96.61 min
Inclination
88.9322°
Eccentricity
0.0005460
Mean motion
14.90602851 rev/d
Perigee alt
592.2 km
Apogee alt
599.9 km
Semi-major
6,974.2 km
B*
1.3110e-4
RAAN
221.6971°
Arg perigee
53.4061°
Mean anomaly
306.7670°
Rev number
35,300

§ Raw data

ONEWEB-00501 45453U 20020AF  26252.93649909  .00001304  00000+0  13110-3 0  99972 45453  88.9322 221.6971 0005460  53.4061 306.7670 14.90602851353003

JSON: /api/v1/satellites/45453 · /tle

For live sub-satellite position, see the globe view (requires WebGL).

§ Visibility from observer

Set your observer location to see the next 7 days of passes ≥ 10°. The values pass through the URL so the page stays shareable.

No JS? Fill the form by hand. The geolocation button needs JavaScript.